This is the latest recevied weather packets stored in our database for station/object DO7ZT-13. If no packets are shown the sender has not sent any weather packets the latest 1 day(s).
| Time | Temp. | Humidity | Pressure | Rain* | Wind** | Luminosity | Snow |
|---|---|---|---|---|---|---|---|
| 1778089827 | 13.89° C | 89% | 1005.7 hPa | 3.81 mm | 0.45 m/s, 354° | - | - |
| 1778089227 | 13.89° C | 88% | 1005.5 hPa | 3.81 mm | 0.89 m/s, 36° | - | - |
| 1778088027 | 16.11° C | 74% | 1005.4 hPa | 0 mm | 0.89 m/s, 306° | - | - |
| 1778086840 | 16.11° C | 73% | 1005.3 hPa | 0 mm | 0.45 m/s, 354° | - | - |
| 1778086215 | 16.11° C | 73% | 1005.3 hPa | 0 mm | 0.89 m/s, 342° | - | - |
| 1778085615 | 17.22° C | 71% | 1005.3 hPa | 0 mm | 0.89 m/s, 324° | - | - |
| 1778085015 | 17.78° C | 69% | 1005.3 hPa | 0 mm | 0.89 m/s, 336° | - | - |
| 1778084415 | 17.78° C | 68% | 1005.5 hPa | 0 mm | 0.89 m/s, 313° | - | - |
| 1778083527 | 17.78° C | 66% | 1005.5 hPa | 0 mm | 0.89 m/s, 354° | - | - |
| 1778083214 | 17.78° C | 66% | 1005.5 hPa | 0 mm | 0.89 m/s, 309° | - | - |
| 1778082614 | 18.89° C | 61% | 1005.5 hPa | 0 mm | 1.34 m/s, 300° | - | - |
| 1778082327 | 18.89° C | 58% | 1005.5 hPa | 0 mm | 0.89 m/s, 258° | - | - |
| 1778082014 | 18.89° C | 56% | 1005.5 hPa | 0 mm | 0.89 m/s, 294° | - | - |
| 1778081727 | 18.89° C | 53% | 1005.5 hPa | 0 mm | 0.89 m/s, 288° | - | - |
| 1778081414 | 18.89° C | 55% | 1005.5 hPa | 0 mm | 0.45 m/s, 306° | - | - |
| 1778080527 | 18.89° C | 59% | 1005.5 hPa | 0 mm | 0 m/s | - | - |
| 1778080214 | 18.89° C | 58% | 1005.5 hPa | 0 mm | 0.45 m/s, 307° | - | - |
| 1778079927 | 18.89° C | 57% | 1005.5 hPa | 0 mm | 0.45 m/s, 306° | - | - |
| 1778078714 | 18.89° C | 58% | 1005.7 hPa | 0 mm | 0.45 m/s, 324° | - | - |
| 1778078114 | 20° C | 53% | 1005.7 hPa | 0 mm | 0.89 m/s, 308° | - | - |
| 1778075427 | 18.89° C | 61% | 1005.8 hPa | 0 mm | 1.34 m/s, 302° | - | - |
| 1778073914 | 17.78° C | 67% | 1006 hPa | 0 mm | 0.45 m/s, 300° | - | - |
| 1778072114 | 18.89° C | 58% | 1006.1 hPa | 0 mm | 1.34 m/s, 251° | - | - |
| 1778071526 | 18.89° C | 58% | 1006 hPa | 0 mm | 0 m/s | - | - |
| 1778070926 | 18.89° C | 57% | 1006 hPa | 0 mm | 1.34 m/s, 245° | - | - |
* Rain latest hour (hover to see other rain measurements)
** Current wind speed in m/s (hover to see current wind gust speed)